Time,TemperatureF,DewpointF,PressureIn,WindDirection,WindDirectionDegrees,WindSpeedMPH,WindSpeedGustMPH,Humidity,HourlyPrecipIn,Conditions,Clouds,dailyrainin,SoftwareType,DateUTC
2013-04-13 00:03:00,40.0,37.0,29.88,East,91,0.0,2.0,88,0.00,,,0.22,,2013-04-13 07:03:00,
2013-04-13 00:13:00,40.0,37.0,29.88,East,91,0.0,2.0,88,0.00,,,0.22,,2013-04-13 07:13:00,
2013-04-13 00:22:00,39.0,37.0,29.88,East,79,0.0,0.0,92,0.00,,,0.22,,2013-04-13 07:22:00,
2013-04-13 00:33:00,39.0,36.0,29.89,WNW,296,0.0,3.0,88,0.00,,,0.22,,2013-04-13 07:33:00,
2013-04-13 00:43:00,39.0,36.0,29.89,WNW,296,0.0,3.0,88,0.00,,,0.22,,2013-04-13 07:43:00,
2013-04-13 00:53:00,39.0,36.0,29.90,SW,217,1.0,9.0,88,0.00,,,0.22,,2013-04-13 07:53:00,
2013-04-13 01:04:00,38.0,35.0,29.91,NNE,29,0.0,3.0,90,0.00,,,0.22,,2013-04-13 08:04:00,
2013-04-13 01:13:00,38.0,35.0,29.91,NNE,29,0.0,3.0,90,0.00,,,0.22,,2013-04-13 08:13:00,
2013-04-13 01:23:00,38.0,35.0,29.91,WNW,296,0.0,3.0,90,0.00,,,0.22,,2013-04-13 08:23:00,
2013-04-13 01:33:00,38.0,35.0,29.92,NW,306,2.0,6.0,90,0.01,,,0.23,,2013-04-13 08:33:00,
2013-04-13 01:43:00,38.0,35.0,29.92,NW,306,2.0,6.0,90,0.01,,,0.23,,2013-04-13 08:43:00,
2013-04-13 01:53:00,38.0,35.0,29.92,SSW,212,2.0,7.0,89,0.01,,,0.23,,2013-04-13 08:53:00,
2013-04-13 02:04:00,39.0,36.0,29.92,WNW,290,0.0,16.0,88,0.01,,,0.23,,2013-04-13 09:04:00,
2013-04-13 02:12:00,39.0,36.0,29.92,WNW,290,0.0,16.0,88,0.01,,,0.23,,2013-04-13 09:12:00,
2013-04-13 02:22:00,38.0,35.0,29.93,North,9,0.0,4.0,90,0.03,,,0.25,,2013-04-13 09:22:00,
2013-04-13 02:53:00,37.0,35.0,29.93,WNW,297,3.0,8.0,91,0.04,,,0.27,,2013-04-13 09:53:00,
2013-04-13 03:04:00,37.0,35.0,29.93,West,276,0.0,5.0,92,0.04,,,0.27,,2013-04-13 10:04:00,
2013-04-13 03:13:00,37.0,35.0,29.93,WNW,303,3.0,7.0,92,0.02,,,0.27,,2013-04-13 10:13:00,
2013-04-13 03:23:00,37.0,35.0,29.93,WNW,303,3.0,7.0,92,0.02,,,0.27,,2013-04-13 10:23:00,
2013-04-13 03:34:00,37.0,35.0,29.94,WNW,297,0.0,6.0,92,0.00,,,0.27,,2013-04-13 10:34:00,
2013-04-13 03:44:00,37.0,35.0,29.94,WNW,297,0.0,6.0,92,0.00,,,0.27,,2013-04-13 10:44:00,
2013-04-13 03:54:00,37.0,35.0,29.95,East,84,1.0,-999.0,92,-99.99,,,-99.99,,2013-04-13 10:54:00,
2013-04-13 04:03:00,35.0,33.0,29.96,SW,224,0.0,4.0,93,0.00,,,0.27,,2013-04-13 11:03:00,
2013-04-13 04:12:00,35.0,33.0,29.96,SW,224,0.0,4.0,93,0.00,,,0.27,,2013-04-13 11:12:00,
2013-04-13 04:23:00,35.0,33.0,29.97,WNW,290,0.0,0.0,94,0.00,,,0.27,,2013-04-13 11:23:00,
2013-04-13 04:32:00,34.0,33.0,29.97,ESE,106,0.0,0.0,96,0.00,,,0.27,,2013-04-13 11:32:00,
2013-04-13 04:43:00,34.0,33.0,29.97,ESE,106,0.0,0.0,96,0.00,,,0.27,,2013-04-13 11:43:00,
2013-04-13 04:53:00,34.0,33.0,29.97,WNW,295,0.0,0.0,96,0.01,,,0.28,,2013-04-13 11:53:00,
2013-04-13 05:13:00,34.0,33.0,29.97,SSE,148,0.0,0.0,96,0.01,,,0.28,,2013-04-13 12:13:00,
2013-04-13 05:22:00,34.0,33.0,29.97,SSE,147,0.0,0.0,96,0.01,,,0.28,,2013-04-13 12:22:00,
2013-04-13 05:33:00,34.0,33.0,29.98,ESE,108,0.0,0.0,97,0.01,,,0.28,,2013-04-13 12:33:00,
2013-04-13 05:44:00,34.0,33.0,29.98,ESE,108,0.0,0.0,97,0.01,,,0.28,,2013-04-13 12:44:00,
2013-04-13 05:54:00,34.0,33.0,29.98,ESE,108,0.0,0.0,97,0.00,,,0.28,,2013-04-13 12:54:00,
2013-04-13 06:03:00,34.0,33.0,29.98,ESE,108,0.0,0.0,97,0.00,,,0.28,,2013-04-13 13:03:00,
2013-04-13 06:13:00,34.0,33.0,29.98,ESE,108,0.0,0.0,97,0.00,,,0.28,,2013-04-13 13:13:00,
2013-04-13 06:22:00,34.0,34.0,29.98,ESE,108,0.0,0.0,98,0.00,,,0.28,,2013-04-13 13:22:00,
2013-04-13 06:32:00,35.0,34.0,29.99,ESE,108,0.0,0.0,98,0.00,,,0.28,,2013-04-13 13:32:00,
2013-04-13 06:44:00,35.0,34.0,29.99,ESE,108,0.0,0.0,98,0.00,,,0.28,,2013-04-13 13:44:00,
2013-04-13 06:55:00,35.0,34.0,29.99,ESE,108,0.0,0.0,98,0.00,,,0.28,,2013-04-13 13:55:00,
2013-04-13 07:03:00,35.0,34.0,29.99,ESE,108,0.0,0.0,98,0.01,,,0.28,,2013-04-13 14:03:00,
2013-04-13 07:12:00,35.0,34.0,29.99,ESE,108,0.0,0.0,98,0.01,,,0.28,,2013-04-13 14:12:00,
2013-04-13 07:22:00,35.0,34.0,29.99,SW,223,0.0,0.0,97,0.01,,,0.28,,2013-04-13 14:22:00,
2013-04-13 07:33:00,35.0,34.0,29.99,SW,223,0.0,0.0,98,0.01,,,0.28,,2013-04-13 14:33:00,
2013-04-13 07:44:00,35.0,34.0,29.99,SW,223,0.0,0.0,98,0.01,,,0.28,,2013-04-13 14:44:00,
2013-04-13 07:56:00,35.0,34.0,30.00,SW,223,0.0,0.0,98,0.01,,,0.28,,2013-04-13 14:56:00,
2013-04-13 08:03:00,35.0,34.0,29.99,West,263,0.0,0.0,97,0.00,,,0.28,,2013-04-13 15:03:00,
2013-04-13 08:13:00,35.0,34.0,29.99,West,263,0.0,0.0,97,0.00,,,0.28,,2013-04-13 15:13:00,
2013-04-13 08:25:00,35.0,34.0,30.00,SE,125,0.0,0.0,98,0.01,,,0.30,,2013-04-13 15:25:00,
2013-04-13 08:33:00,36.0,35.0,30.00,East,82,0.0,0.0,98,0.01,,,0.30,,2013-04-13 15:33:00,
2013-04-13 08:55:00,37.0,36.0,29.99,East,94,0.0,1.0,98,0.01,,,0.30,,2013-04-13 15:55:00,
2013-04-13 09:03:00,38.0,37.0,29.99,SW,229,0.0,4.0,97,0.01,,,0.30,,2013-04-13 16:03:00,
2013-04-13 09:13:00,38.0,37.0,29.99,SW,229,0.0,4.0,97,0.01,,,0.30,,2013-04-13 16:13:00,
2013-04-13 09:23:00,39.0,37.0,30.00,SW,231,0.0,3.0,94,0.00,,,0.30,,2013-04-13 16:23:00,
2013-04-13 09:33:00,39.0,38.0,30.00,ESE,103,0.0,2.0,95,0.00,,,0.30,,2013-04-13 16:33:00,
2013-04-13 09:43:00,39.0,38.0,30.00,ESE,103,0.0,2.0,95,0.00,,,0.30,,2013-04-13 16:43:00,
2013-04-13 09:54:00,40.0,38.0,30.00,East,86,0.0,0.0,94,0.00,,,0.30,,2013-04-13 16:54:00,
2013-04-13 10:03:00,41.0,37.0,30.00,SSE,165,0.0,5.0,86,0.00,,,0.30,,2013-04-13 17:03:00,
2013-04-13 10:14:00,41.0,37.0,30.00,SSE,165,0.0,5.0,86,0.00,,,0.30,,2013-04-13 17:14:00,
2013-04-13 10:23:00,41.0,37.0,30.00,West,267,0.0,5.0,84,0.00,,,0.30,,2013-04-13 17:23:00,
2013-04-13 10:33:00,41.0,35.0,30.01,SSW,205,1.0,7.0,80,0.00,,,0.30,,2013-04-13 17:33:00,
2013-04-13 10:43:00,41.0,35.0,30.01,SSW,205,1.0,7.0,80,0.00,,,0.30,,2013-04-13 17:43:00,
2013-04-13 11:02:00,42.0,38.0,30.01,NE,46,0.0,9.0,84,0.00,,,0.30,,2013-04-13 18:02:00,
2013-04-13 11:23:00,42.0,38.0,30.01,East,100,1.0,9.0,84,0.00,,,0.30,,2013-04-13 18:23:00,
2013-04-13 11:32:00,42.0,38.0,30.01,SSE,149,0.0,9.0,85,0.00,,,0.30,,2013-04-13 18:32:00,
2013-04-13 11:42:00,42.0,38.0,30.01,SSE,149,0.0,9.0,85,0.00,,,0.30,,2013-04-13 18:42:00,
2013-04-13 11:53:00,41.0,38.0,30.01,SSW,212,1.0,9.0,88,0.00,,,0.30,,2013-04-13 18:53:00,
2013-04-13 12:02:00,42.0,38.0,30.01,SSW,201,2.0,8.0,87,0.00,,,0.30,,2013-04-13 19:02:00,
2013-04-13 12:12:00,42.0,38.0,30.01,SSW,201,2.0,8.0,87,0.00,,,0.30,,2013-04-13 19:12:00,
2013-04-13 12:22:00,42.0,39.0,30.01,SW,236,1.0,4.0,89,0.01,,,0.31,,2013-04-13 19:22:00,
2013-04-13 12:32:00,43.0,40.0,30.01,SSW,210,0.0,2.0,90,0.01,,,0.31,,2013-04-13 19:32:00,
2013-04-13 12:42:00,43.0,40.0,30.01,SSW,210,0.0,2.0,90,0.01,,,0.31,,2013-04-13 19:42:00,
2013-04-13 12:53:00,44.0,41.0,30.01,SSE,159,0.0,11.0,89,0.01,,,0.31,,2013-04-13 19:53:00,
2013-04-13 13:01:00,45.0,43.0,30.01,WSW,255,2.0,6.0,92,0.02,,,0.32,,2013-04-13 20:01:00,
2013-04-13 13:11:00,45.0,43.0,30.01,WSW,255,2.0,6.0,92,0.02,,,0.32,,2013-04-13 20:11:00,
2013-04-13 13:22:00,45.0,42.0,30.00,WNW,302,1.0,7.0,89,0.01,,,0.32,,2013-04-13 20:22:00,
2013-04-13 13:31:00,45.0,42.0,30.01,ESE,109,0.0,6.0,90,0.02,,,0.33,,2013-04-13 20:31:00,
2013-04-13 13:42:00,45.0,42.0,30.01,ESE,109,0.0,6.0,90,0.02,,,0.33,,2013-04-13 20:42:00,
2013-04-13 13:52:00,45.0,42.0,30.01,SSW,212,0.0,5.0,89,0.02,,,0.33,,2013-04-13 20:52:00,
2013-04-13 14:02:00,45.0,40.0,30.01,WNW,290,2.0,7.0,84,0.01,,,0.33,,2013-04-13 21:02:00,
2013-04-13 14:12:00,45.0,40.0,30.01,WNW,290,2.0,7.0,84,0.01,,,0.33,,2013-04-13 21:12:00,
2013-04-13 14:22:00,44.0,40.0,30.01,WSW,251,0.0,10.0,86,0.01,,,0.33,,2013-04-13 21:22:00,
2013-04-13 14:32:00,46.0,42.0,30.01,SW,222,0.0,6.0,85,0.00,,,0.30,,2013-04-13 21:32:00,
2013-04-13 14:42:00,46.0,42.0,30.01,SW,222,0.0,6.0,85,0.00,,,0.30,,2013-04-13 21:42:00,
2013-04-13 14:52:00,45.0,40.0,30.01,West,262,2.0,8.0,82,0.01,,,0.31,,2013-04-13 21:52:00,
2013-04-13 15:02:00,45.0,43.0,30.01,NW,312,0.0,6.0,91,0.02,,,0.32,,2013-04-13 22:02:00,
2013-04-13 15:12:00,45.0,43.0,30.01,NW,312,0.0,6.0,91,0.02,,,0.32,,2013-04-13 22:12:00,
2013-04-13 15:22:00,46.0,42.0,30.01,NW,306,3.0,11.0,85,0.02,,,0.32,,2013-04-13 22:22:00,
2013-04-13 15:32:00,47.0,43.0,30.01,SSW,205,1.0,8.0,87,0.02,,,0.27,,2013-04-13 22:32:00,
2013-04-13 15:42:00,47.0,43.0,30.01,SSW,205,1.0,8.0,87,0.02,,,0.27,,2013-04-13 22:42:00,
2013-04-13 15:52:00,49.0,41.0,30.01,SW,218,2.0,10.0,73,0.01,,,0.27,,2013-04-13 22:52:00,
2013-04-13 16:01:00,49.0,40.0,30.01,West,277,4.0,11.0,70,0.00,,,0.27,,2013-04-13 23:01:00,
2013-04-13 16:12:00,49.0,40.0,30.01,West,277,4.0,11.0,70,0.00,,,0.27,,2013-04-13 23:12:00,
2013-04-13 16:22:00,48.0,39.0,30.01,WNW,288,3.0,13.0,70,0.00,,,0.27,,2013-04-13 23:22:00,
2013-04-13 16:32:00,48.0,40.0,30.01,NW,304,2.0,10.0,73,0.00,,,0.18,,2013-04-13 23:32:00,
2013-04-13 16:41:00,48.0,40.0,30.01,NW,304,2.0,10.0,73,0.00,,,0.18,,2013-04-13 23:41:00,
2013-04-13 16:52:00,44.0,39.0,30.02,WNW,285,6.0,14.0,81,0.01,,,0.19,,2013-04-13 23:52:00,
2013-04-13 17:01:00,43.0,39.0,30.02,NW,304,5.0,19.0,85,0.01,,,0.19,,2013-04-14 00:01:00,
2013-04-13 17:11:00,43.0,39.0,30.02,NW,304,5.0,19.0,85,0.01,,,0.19,,2013-04-14 00:11:00,
2013-04-13 17:22:00,45.0,41.0,30.01,WNW,297,1.0,5.0,86,0.01,,,0.16,,2013-04-14 00:22:00,
2013-04-13 17:31:00,44.0,40.0,30.02,West,281,3.0,7.0,85,0.01,,,0.16,,2013-04-14 00:31:00,
2013-04-13 17:42:00,44.0,40.0,30.02,West,281,3.0,7.0,85,0.01,,,0.16,,2013-04-14 00:42:00,
2013-04-13 17:52:00,44.0,40.0,30.02,West,281,3.0,7.0,85,0.01,,,0.16,,2013-04-14 00:52:00,
2013-04-13 18:02:00,44.0,41.0,30.02,SW,232,2.0,13.0,88,0.02,,,0.18,,2013-04-14 01:02:00,
2013-04-13 18:12:00,44.0,41.0,30.02,SW,232,2.0,13.0,88,0.02,,,0.18,,2013-04-14 01:12:00,
2013-04-13 18:22:00,45.0,42.0,30.02,West,264,0.0,4.0,89,0.02,,,0.17,,2013-04-14 01:22:00,
2013-04-13 18:32:00,45.0,40.0,30.02,ESE,122,0.0,6.0,83,0.02,,,0.17,,2013-04-14 01:32:00,
2013-04-13 18:42:00,45.0,40.0,30.02,ESE,122,0.0,6.0,83,0.02,,,0.17,,2013-04-14 01:42:00,
2013-04-13 18:52:00,45.0,40.0,30.02,WNW,292,2.0,7.0,82,0.00,,,0.17,,2013-04-14 01:52:00,
2013-04-13 19:02:00,45.0,40.0,30.02,WSW,237,1.0,8.0,82,0.00,,,0.17,,2013-04-14 02:02:00,
2013-04-13 19:11:00,45.0,40.0,30.02,WSW,237,1.0,8.0,82,0.00,,,0.17,,2013-04-14 02:11:00,
2013-04-13 19:22:00,45.0,40.0,30.02,NNW,333,0.0,6.0,82,0.00,,,0.17,,2013-04-14 02:22:00,
2013-04-13 19:32:00,44.0,39.0,30.02,WNW,289,0.0,1.0,83,0.00,,,0.17,,2013-04-14 02:32:00,
2013-04-13 19:42:00,44.0,39.0,30.02,WNW,289,0.0,1.0,83,0.00,,,0.17,,2013-04-14 02:42:00,
2013-04-13 19:53:00,43.0,39.0,30.03,NNE,31,0.0,0.0,87,0.00,,,0.17,,2013-04-14 02:53:00,
2013-04-13 20:02:00,43.0,39.0,30.03,SW,215,0.0,2.0,87,0.00,,,0.17,,2013-04-14 03:02:00,
2013-04-13 20:12:00,43.0,39.0,30.03,SW,215,0.0,2.0,87,0.00,,,0.17,,2013-04-14 03:12:00,
2013-04-13 20:22:00,42.0,40.0,30.03,ENE,66,0.0,0.0,92,0.00,,,0.17,,2013-04-14 03:22:00,
2013-04-13 20:33:00,41.0,39.0,30.03,NNE,22,0.0,0.0,91,0.00,,,0.17,,2013-04-14 03:33:00,
2013-04-13 20:42:00,41.0,39.0,30.03,NNE,22,0.0,0.0,91,0.00,,,0.17,,2013-04-14 03:42:00,
2013-04-13 20:53:00,40.0,38.0,30.04,ESE,116,0.0,0.0,92,0.00,,,0.17,,2013-04-14 03:53:00,
2013-04-13 21:02:00,39.0,37.0,30.05,ESE,116,0.0,0.0,93,0.00,,,0.17,,2013-04-14 04:02:00,
2013-04-13 21:12:00,39.0,37.0,30.05,ESE,116,0.0,0.0,93,0.00,,,0.17,,2013-04-14 04:12:00,
2013-04-13 21:22:00,39.0,38.0,30.05,East,94,0.0,0.0,95,0.00,,,0.17,,2013-04-14 04:22:00,
2013-04-13 21:32:00,39.0,38.0,30.05,North,356,0.0,0.0,95,0.00,,,0.17,,2013-04-14 04:32:00,
2013-04-13 21:42:00,39.0,38.0,30.05,North,356,0.0,0.0,95,0.00,,,0.17,,2013-04-14 04:42:00,
2013-04-13 21:52:00,39.0,38.0,30.05,North,356,0.0,0.0,96,0.01,,,0.18,,2013-04-14 04:52:00,
2013-04-13 22:02:00,39.0,38.0,30.06,North,356,0.0,0.0,96,0.01,,,0.18,,2013-04-14 05:02:00,
2013-04-13 22:12:00,39.0,38.0,30.06,North,356,0.0,0.0,96,0.01,,,0.18,,2013-04-14 05:12:00,
2013-04-13 22:22:00,40.0,39.0,30.06,West,278,0.0,0.0,96,0.02,,,0.18,,2013-04-14 05:22:00,
2013-04-13 22:32:00,39.0,38.0,30.06,NW,322,0.0,0.0,95,0.03,,,0.19,,2013-04-14 05:32:00,
2013-04-13 22:42:00,39.0,38.0,30.06,NW,322,0.0,0.0,95,0.03,,,0.19,,2013-04-14 05:42:00,
2013-04-13 22:52:00,38.0,37.0,30.06,NW,322,0.0,0.0,96,0.02,,,0.19,,2013-04-14 05:52:00,
2013-04-13 23:01:00,39.0,38.0,30.06,WNW,296,0.0,3.0,97,0.02,,,0.19,,2013-04-14 06:01:00,
2013-04-13 23:11:00,39.0,38.0,30.06,WNW,296,0.0,3.0,97,0.02,,,0.19,,2013-04-14 06:11:00,
2013-04-13 23:21:00,38.0,37.0,30.06,NNE,22,0.0,0.0,97,0.00,,,0.19,,2013-04-14 06:21:00,
2013-04-13 23:32:00,38.0,37.0,30.06,NNE,21,0.0,0.0,97,0.00,,,0.19,,2013-04-14 06:32:00,
2013-04-13 23:42:00,38.0,37.0,30.06,NNE,21,0.0,0.0,97,0.00,,,0.19,,2013-04-14 06:42:00,
2013-04-13 23:52:00,39.0,38.0,30.06,NNE,22,0.0,0.0,97,0.01,,,0.20,,2013-04-14 06:52:00,